Terminal Aerodrome Forecast
Issued by NWS

Home | Current Version | Previous Version | Text Only | Print | Product List | Glossary On
Versions: 1 2 3 4 5 6 7 8 9 10 11 12 13 14 15 16 17 18 19 20 21 22 23 24
000
FTUS45 KFGZ 201100 RRA
TAFSEZ
TAF
KSEZ 201144Z 2012/2112 VRB05KT P6SM FEW110
      TEMPO 2012/2013 P6SM BKN012 OVC045
     FM201300 VRB05KT P6SM FEW015 SCT080
     FM202000 24008KT P6SM VCTS BKN080CB PROB30 2021/2101 VRB15G25KT
      3SM TSRA BKN030CB
     FM210300 VRB03KT P6SM SCT090=

USA.gov is the U.S. government's official web portal to all federal, state and local government web resources and services.